OneWeb SL0020

operational
NORAD ID: 45133 Int'l Des: 2020-008 Owner: ONEWEB Country: UK Constellation: oneweb
LEOCIRCULARPOLARONEWEB_TYPE

OneWeb SL0020について

説明を読み込み中...

リアルタイム位置

3D地球を読み込み中...

次回通過

高度履歴

Altitude vs Time

uPlot chart will show altitude changes over time

軌道要素

1 45133U 20008C 25307.63885219 -.00002212 00000-0 -63728-2 0 9992
2 45133 87.8789 81.2213 0002037 85.0573 275.0787 13.10382596278801
Epoch: Nov 3, 2025 • Age: 22 hours

現在のステータス

高度 1233.7 km
速度 7.25 km/s
衛星直下点 79.77°N, 2.29°W
打ち上げ日 Feb 6, 2020
運用期間 5.7 years
タイプ internet

技術仕様

分類 Payload
質量 148.00 kg
乾燥質量 140.00 kg
総質量 148.00 kg
長さ 1.30 m
直径 1.00 m
スパン 5.00 m
形状 Trapezoid+2 pan
製造者 ONEWUS
バスタイプ ARROW
フェーズステータス In Orbit
所有者/国 ONEWEB/UK

大規模コンステレーション

Loading constellations...